Back to catalog

DELTA 1 DEB

AliveSSO
NORAD 10873·DEBRIS·🇺🇸 United States

Launched Jul 29, 1976 from Vandenberg Space Force Base

Loading…

Next Passes (next 24 hours)

TLE

FreshSource: Space-Track

Epoch: Sep 13, 2026, 19:09 UTC

1 10873U 76077DB  26256.79852773 -.00000018  00000-0  24378-3 0  9992
2 10873 102.2299  17.1327 0139801   8.5643 144.8140 12.13922631222463

Track DELTA 1 DEB in real time with AllMySat

Download on the App Store